Time,TemperatureF,DewpointF,PressureIn,WindDirection,WindDirectionDegrees,WindSpeedMPH,WindSpeedGustMPH,Humidity,HourlyPrecipIn,Conditions,Clouds,dailyrainin,SoftwareType,DateUTC
2013-06-05 00:00:00,76.7,68.6,29.86,SE,144,9.0,15.0,76,0.00,,SKC,0.00,VWS V14.01,2013-06-05 05:00:00,
2013-06-05 00:04:00,76.5,68.4,29.86,SE,144,7.0,7.0,76,0.00,,SKC,0.00,VWS V14.01,2013-06-05 05:04:00,
2013-06-05 00:09:00,76.3,68.6,29.87,SE,145,4.0,12.0,77,0.00,,SKC,0.00,VWS V14.01,2013-06-05 05:09:00,
2013-06-05 00:14:00,76.2,68.5,29.87,SSE,150,4.0,13.0,77,0.00,,SKC,0.00,VWS V14.01,2013-06-05 05:14:00,
2013-06-05 00:19:00,76.0,68.3,29.88,SSE,148,3.0,13.0,77,0.00,,SKC,0.00,VWS V14.01,2013-06-05 05:19:00,
2013-06-05 00:24:00,75.8,68.5,29.88,SSE,148,3.0,13.0,78,0.00,,SKC,0.00,VWS V14.01,2013-06-05 05:24:00,
2013-06-05 00:29:00,75.5,68.5,29.88,SE,146,3.0,13.0,79,0.00,,SKC,0.00,VWS V14.01,2013-06-05 05:29:00,
2013-06-05 00:34:00,75.3,68.3,29.88,SE,146,1.0,7.0,79,0.00,,SKC,0.00,VWS V14.01,2013-06-05 05:34:00,
2013-06-05 00:39:00,75.2,68.2,29.88,SE,146,5.0,7.0,79,0.00,,SKC,0.00,VWS V14.01,2013-06-05 05:39:00,
2013-06-05 00:44:00,75.0,68.4,29.88,SE,146,2.0,7.0,80,0.00,,SKC,0.00,VWS V14.01,2013-06-05 05:44:00,
2013-06-05 00:49:00,74.8,68.2,29.89,SE,146,2.0,7.0,80,0.00,,SKC,0.00,VWS V14.01,2013-06-05 05:49:00,
2013-06-05 00:54:00,74.6,68.4,29.89,SE,146,2.0,7.0,81,0.00,,SKC,0.00,VWS V14.01,2013-06-05 05:54:00,
2013-06-05 00:59:00,74.5,68.3,29.89,SE,146,0.0,7.0,81,0.00,,SKC,0.00,VWS V14.01,2013-06-05 05:59:00,
2013-06-05 01:04:00,74.3,68.1,29.89,SE,146,0.0,3.0,81,0.00,,SKC,0.00,VWS V14.01,2013-06-05 06:04:00,
2013-06-05 01:09:00,74.1,68.3,29.89,SE,146,2.0,4.0,82,0.00,,SKC,0.00,VWS V14.01,2013-06-05 06:09:00,
2013-06-05 01:14:00,73.9,68.1,29.89,SE,146,2.0,7.0,82,0.00,,SKC,0.00,VWS V14.01,2013-06-05 06:14:00,
2013-06-05 01:19:00,73.7,68.2,29.88,SE,146,2.0,7.0,83,0.00,,SKC,0.00,VWS V14.01,2013-06-05 06:19:00,
2013-06-05 01:24:00,73.5,68.0,29.88,SE,145,6.0,10.0,83,0.00,,SKC,0.00,VWS V14.01,2013-06-05 06:24:00,
2013-06-05 01:29:00,73.4,67.9,29.88,SE,146,3.0,10.0,83,0.00,,SKC,0.00,VWS V14.01,2013-06-05 06:29:00,
2013-06-05 01:34:00,73.2,68.1,29.88,SE,146,4.0,6.0,84,0.00,,SKC,0.00,VWS V14.01,2013-06-05 06:34:00,
2013-06-05 01:39:00,73.1,68.0,29.87,SSE,148,3.0,11.0,84,0.00,,SKC,0.00,VWS V14.01,2013-06-05 06:39:00,
2013-06-05 01:44:00,73.0,67.9,29.87,SSE,148,4.0,11.0,84,0.00,,SKC,0.00,VWS V14.01,2013-06-05 06:44:00,
2013-06-05 01:49:00,72.8,67.7,29.87,SSE,148,2.0,11.0,84,0.00,,SKC,0.00,VWS V14.01,2013-06-05 06:49:00,
2013-06-05 01:54:00,72.7,67.9,29.87,SSE,147,3.0,11.0,85,0.00,,SKC,0.00,VWS V14.01,2013-06-05 06:54:00,
2013-06-05 01:59:00,72.6,67.8,29.87,SSE,147,0.0,11.0,85,0.00,,SKC,0.00,VWS V14.01,2013-06-05 06:59:00,
2013-06-05 02:04:00,72.5,67.7,29.87,SSE,147,0.0,3.0,85,0.00,,SKC,0.00,VWS V14.01,2013-06-05 07:04:00,
2013-06-05 02:09:00,72.3,67.5,29.87,SSE,147,0.0,5.0,85,0.00,,SKC,0.00,VWS V14.01,2013-06-05 07:09:00,
2013-06-05 02:14:00,72.2,67.8,29.87,SSE,147,0.0,5.0,86,0.00,,SKC,0.00,VWS V14.01,2013-06-05 07:14:00,
2013-06-05 02:19:00,72.1,67.7,29.87,SSE,147,0.0,5.0,86,0.00,,SKC,0.00,VWS V14.01,2013-06-05 07:19:00,
2013-06-05 02:24:00,71.9,67.5,29.87,SSE,147,0.0,5.0,86,0.00,,SKC,0.00,VWS V14.01,2013-06-05 07:24:00,
2013-06-05 02:29:00,71.8,67.4,29.86,SSE,147,0.0,5.0,86,0.00,,SKC,0.00,VWS V14.01,2013-06-05 07:29:00,
2013-06-05 02:34:00,71.7,67.3,29.86,SSE,147,0.0,3.0,86,0.00,,SKC,0.00,VWS V14.01,2013-06-05 07:34:00,
2013-06-05 02:39:00,71.5,67.4,29.86,SSE,147,2.0,3.0,87,0.00,,SKC,0.00,VWS V14.01,2013-06-05 07:39:00,
2013-06-05 02:44:00,71.4,67.3,29.86,SSE,147,0.0,4.0,87,0.00,,SKC,0.00,VWS V14.01,2013-06-05 07:44:00,
2013-06-05 02:49:00,71.3,67.2,29.86,SSE,147,0.0,4.0,87,0.00,,SKC,0.00,VWS V14.01,2013-06-05 07:49:00,
2013-06-05 02:54:00,71.2,67.1,29.85,SSE,147,0.0,4.0,87,0.00,,SKC,0.00,VWS V14.01,2013-06-05 07:54:00,
2013-06-05 02:59:00,71.1,67.4,29.85,SSE,147,3.0,4.0,88,0.00,,SKC,0.00,VWS V14.01,2013-06-05 07:59:00,
2013-06-05 03:04:00,71.0,67.3,29.85,SSE,147,0.0,1.0,88,0.00,,SKC,0.00,VWS V14.01,2013-06-05 08:04:00,
2013-06-05 03:09:00,70.9,67.2,29.86,SSE,147,0.0,1.0,88,0.00,,SKC,0.00,VWS V14.01,2013-06-05 08:09:00,
2013-06-05 03:14:00,70.8,67.1,29.86,SSE,147,0.0,1.0,88,0.00,,SKC,0.00,VWS V14.01,2013-06-05 08:14:00,
2013-06-05 03:19:00,70.6,66.9,29.86,SSE,147,0.0,1.0,88,0.00,,SKC,0.00,VWS V14.01,2013-06-05 08:19:00,
2013-06-05 03:24:00,70.6,67.2,29.86,SSE,147,1.0,4.0,89,0.00,,SKC,0.00,VWS V14.01,2013-06-05 08:24:00,
2013-06-05 03:29:00,70.5,67.1,29.86,SSE,147,0.0,5.0,89,0.00,,SKC,0.00,VWS V14.01,2013-06-05 08:29:00,
2013-06-05 03:34:00,70.5,67.1,29.86,SSE,147,0.0,3.0,89,0.00,,SKC,0.00,VWS V14.01,2013-06-05 08:34:00,
2013-06-05 03:39:00,70.5,67.1,29.86,SSE,147,0.0,3.0,89,0.00,,SKC,0.00,VWS V14.01,2013-06-05 08:39:00,
2013-06-05 03:44:00,70.5,67.1,29.86,SSE,147,0.0,3.0,89,0.00,,SKC,0.00,VWS V14.01,2013-06-05 08:44:00,
2013-06-05 03:49:00,70.5,67.1,29.85,SSE,147,0.0,3.0,89,0.00,,SKC,0.00,VWS V14.01,2013-06-05 08:49:00,
2013-06-05 03:54:00,70.5,67.1,29.86,SSE,147,0.0,3.0,89,0.00,,SKC,0.00,VWS V14.01,2013-06-05 08:54:00,
2013-06-05 03:59:00,70.5,67.1,29.86,SSE,147,0.0,3.0,89,0.00,,SKC,0.00,VWS V14.01,2013-06-05 08:59:00,
2013-06-05 04:04:00,70.4,67.3,29.87,SSE,147,0.0,0.0,90,0.00,,SKC,0.00,VWS V14.01,2013-06-05 09:04:00,
2013-06-05 04:09:00,70.5,67.4,29.87,SSE,147,0.0,0.0,90,0.00,,SKC,0.00,VWS V14.01,2013-06-05 09:09:00,
2013-06-05 04:14:00,70.6,67.5,29.88,SSE,147,0.0,1.0,90,0.00,,SKC,0.00,VWS V14.01,2013-06-05 09:14:00,
2013-06-05 04:19:00,70.6,67.5,29.87,SSE,147,0.0,1.0,90,0.00,,SKC,0.00,VWS V14.01,2013-06-05 09:19:00,
2013-06-05 04:24:00,70.6,67.5,29.87,SSE,147,0.0,1.0,90,0.00,,SKC,0.00,VWS V14.01,2013-06-05 09:24:00,
2013-06-05 04:29:00,70.6,67.5,29.87,SSE,147,0.0,1.0,90,0.00,,SKC,0.00,VWS V14.01,2013-06-05 09:29:00,
2013-06-05 04:34:00,70.7,67.6,29.87,SSE,147,0.0,0.0,90,0.00,,SKC,0.00,VWS V14.01,2013-06-05 09:34:00,
2013-06-05 04:39:00,70.7,67.6,29.87,SSE,147,0.0,0.0,90,0.00,,SKC,0.00,VWS V14.01,2013-06-05 09:39:00,
2013-06-05 04:44:00,70.6,67.5,29.86,SSE,147,0.0,1.0,90,0.00,,SKC,0.00,VWS V14.01,2013-06-05 09:44:00,
2013-06-05 04:49:00,70.6,67.5,29.87,SSE,147,0.0,1.0,90,0.00,,SKC,0.00,VWS V14.01,2013-06-05 09:49:00,
2013-06-05 04:54:00,70.6,67.5,29.87,SSE,147,0.0,1.0,90,0.00,,SKC,0.00,VWS V14.01,2013-06-05 09:54:00,
2013-06-05 04:59:00,70.4,67.3,29.87,SSE,147,0.0,1.0,90,0.00,,SKC,0.00,VWS V14.01,2013-06-05 09:59:00,
2013-06-05 05:04:00,70.4,67.3,29.87,SSE,147,0.0,0.0,90,0.00,,SKC,0.00,VWS V14.01,2013-06-05 10:04:00,
2013-06-05 05:09:00,70.3,67.2,29.87,SSE,147,0.0,0.0,90,0.00,,SKC,0.00,VWS V14.01,2013-06-05 10:09:00,
2013-06-05 05:14:00,70.2,67.1,29.87,SSE,147,0.0,0.0,90,0.00,,SKC,0.00,VWS V14.01,2013-06-05 10:14:00,
2013-06-05 05:19:00,70.1,67.0,29.86,SSE,147,0.0,0.0,90,0.00,,SKC,0.00,VWS V14.01,2013-06-05 10:19:00,
2013-06-05 05:24:00,70.0,66.9,29.86,SSE,147,0.0,0.0,90,0.00,,SKC,0.00,VWS V14.01,2013-06-05 10:24:00,
2013-06-05 05:29:00,69.9,66.8,29.86,SSE,147,0.0,0.0,90,0.00,,SKC,0.00,VWS V14.01,2013-06-05 10:29:00,
2013-06-05 05:34:00,69.8,66.7,29.86,SSE,147,0.0,0.0,90,0.00,,SKC,0.00,VWS V14.01,2013-06-05 10:34:00,
2013-06-05 05:39:00,69.7,66.6,29.86,SSE,147,0.0,0.0,90,0.00,,SKC,0.00,VWS V14.01,2013-06-05 10:39:00,
2013-06-05 05:44:00,69.6,66.5,29.86,SSE,147,0.0,0.0,90,0.00,,SKC,0.00,VWS V14.01,2013-06-05 10:44:00,
2013-06-05 05:49:00,69.5,66.4,29.86,SSE,147,0.0,0.0,90,0.00,,SKC,0.00,VWS V14.01,2013-06-05 10:49:00,
2013-06-05 05:54:00,69.4,66.3,29.86,SSE,147,0.0,0.0,90,0.00,,SKC,0.00,VWS V14.01,2013-06-05 10:54:00,
2013-06-05 05:59:00,69.3,66.2,29.86,SSE,147,0.0,0.0,90,0.00,,SKC,0.00,VWS V14.01,2013-06-05 10:59:00,
2013-06-05 06:04:00,69.2,66.2,29.86,SSE,147,0.0,0.0,90,0.00,,SKC,0.00,VWS V14.01,2013-06-05 11:04:00,
2013-06-05 06:08:00,69.0,65.9,29.86,SSE,147,0.0,0.0,90,0.00,,SKC,0.00,VWS V14.01,2013-06-05 11:08:00,
2013-06-05 06:13:00,68.9,65.8,29.86,SSE,147,0.0,0.0,90,0.00,,SKC,0.00,VWS V14.01,2013-06-05 11:13:00,
2013-06-05 06:18:00,68.9,66.2,29.86,SSE,147,0.0,0.0,91,0.00,,SKC,0.00,VWS V14.01,2013-06-05 11:18:00,
2013-06-05 06:23:00,68.9,66.2,29.87,SSE,147,0.0,0.0,91,0.00,,SKC,0.00,VWS V14.01,2013-06-05 11:23:00,
2013-06-05 06:28:00,68.9,66.2,29.86,SSE,147,0.0,0.0,91,0.00,,SKC,0.00,VWS V14.01,2013-06-05 11:28:00,
2013-06-05 06:33:00,68.9,66.2,29.86,SSE,147,0.0,0.0,91,0.00,,SKC,0.00,VWS V14.01,2013-06-05 11:33:00,
2013-06-05 06:38:00,69.0,66.6,29.86,SSE,147,0.0,0.0,92,0.00,,SKC,0.00,VWS V14.01,2013-06-05 11:38:00,
2013-06-05 06:43:00,69.1,66.7,29.86,SSW,192,0.0,0.0,92,0.00,,SKC,0.00,VWS V14.01,2013-06-05 11:43:00,
2013-06-05 06:48:00,69.1,66.7,29.86,SSW,192,0.0,0.0,92,0.00,,SKC,0.00,VWS V14.01,2013-06-05 11:48:00,
2013-06-05 06:53:00,69.1,66.7,29.86,SSW,192,0.0,0.0,92,0.00,,SKC,0.00,VWS V14.01,2013-06-05 11:53:00,
2013-06-05 06:58:00,69.0,66.6,29.85,SSW,192,0.0,0.0,92,0.00,,SKC,0.00,VWS V14.01,2013-06-05 11:58:00,
2013-06-05 07:03:00,69.1,66.7,29.85,SSW,192,0.0,0.0,92,0.00,,SKC,0.00,VWS V14.01,2013-06-05 12:03:00,
2013-06-05 07:08:00,69.2,67.1,29.86,SSW,192,1.0,1.0,93,0.00,,SKC,0.00,VWS V14.01,2013-06-05 12:08:00,
2013-06-05 07:13:00,69.4,67.3,29.85,SSW,192,2.0,5.0,93,0.00,,SKC,0.00,VWS V14.01,2013-06-05 12:13:00,
2013-06-05 07:18:00,69.6,67.5,29.85,SSW,192,0.0,5.0,93,0.00,,SKC,0.00,VWS V14.01,2013-06-05 12:18:00,
2013-06-05 07:23:00,69.7,67.6,29.85,SSW,192,2.0,5.0,93,0.00,,SKC,0.00,VWS V14.01,2013-06-05 12:23:00,
2013-06-05 07:28:00,69.8,67.7,29.86,SSW,192,0.0,5.0,93,0.00,,SKC,0.00,VWS V14.01,2013-06-05 12:28:00,
2013-06-05 07:33:00,70.0,67.9,29.86,SSW,192,1.0,4.0,93,0.00,,SKC,0.00,VWS V14.01,2013-06-05 12:33:00,
2013-06-05 07:38:00,70.3,68.2,29.86,SSW,192,2.0,6.0,93,0.00,,SKC,0.00,VWS V14.01,2013-06-05 12:38:00,
2013-06-05 07:43:00,70.5,68.4,29.86,SSW,192,6.0,6.0,93,0.00,,SKC,0.00,VWS V14.01,2013-06-05 12:43:00,
2013-06-05 07:48:00,70.7,68.6,29.85,SSW,192,4.0,6.0,93,0.00,,SKC,0.00,VWS V14.01,2013-06-05 12:48:00,
2013-06-05 07:53:00,71.0,68.9,29.86,SSW,194,1.0,7.0,93,0.00,,SKC,0.00,VWS V14.01,2013-06-05 12:53:00,
2013-06-05 07:58:00,71.2,69.1,29.86,SSW,195,3.0,7.0,93,0.00,,SKC,0.00,VWS V14.01,2013-06-05 12:58:00,
2013-06-05 08:03:00,71.6,69.5,29.85,SSW,195,2.0,6.0,93,0.00,,SKC,0.00,VWS V14.01,2013-06-05 13:03:00,
2013-06-05 08:08:00,72.1,70.0,29.86,SSW,196,2.0,6.0,93,0.00,,SKC,0.00,VWS V14.01,2013-06-05 13:08:00,
2013-06-05 08:13:00,72.5,70.1,29.86,SSW,194,1.0,6.0,92,0.00,,SKC,0.00,VWS V14.01,2013-06-05 13:13:00,
2013-06-05 08:18:00,72.9,70.1,29.86,SSE,167,0.0,10.0,91,0.00,,SKC,0.00,VWS V14.01,2013-06-05 13:18:00,
2013-06-05 08:23:00,73.3,70.2,29.86,South,175,1.0,10.0,90,0.00,,SKC,0.00,VWS V14.01,2013-06-05 13:23:00,
2013-06-05 08:28:00,73.5,70.1,29.87,South,173,1.0,10.0,89,0.00,,SKC,0.00,VWS V14.01,2013-06-05 13:28:00,
2013-06-05 08:33:00,73.7,70.3,29.87,South,174,4.0,6.0,89,0.00,,SKC,0.00,VWS V14.01,2013-06-05 13:33:00,
2013-06-05 08:38:00,73.8,69.7,29.87,SSW,200,3.0,12.0,87,0.00,,SKC,0.00,VWS V14.01,2013-06-05 13:38:00,
2013-06-05 08:43:00,73.9,69.4,29.88,SSW,193,4.0,12.0,86,0.00,,SKC,0.00,VWS V14.01,2013-06-05 13:43:00,
2013-06-05 08:48:00,74.0,69.6,29.88,SSW,202,9.0,13.0,86,0.00,,SKC,0.00,VWS V14.01,2013-06-05 13:48:00,
2013-06-05 08:53:00,74.0,69.2,29.88,SSW,198,3.0,15.0,85,0.00,,SKC,0.00,VWS V14.01,2013-06-05 13:53:00,
2013-06-05 08:58:00,74.0,68.9,29.88,SSW,202,4.0,15.0,84,0.00,,SKC,0.00,VWS V14.01,2013-06-05 13:58:00,
2013-06-05 09:03:00,74.0,68.5,29.88,SSW,204,9.0,10.0,83,0.00,,SKC,0.00,VWS V14.01,2013-06-05 14:03:00,
2013-06-05 09:08:00,74.0,68.5,29.88,SSW,196,5.0,12.0,83,0.00,,SKC,0.00,VWS V14.01,2013-06-05 14:08:00,
2013-06-05 09:13:00,74.2,68.7,29.88,SSW,197,6.0,12.0,83,0.00,,SKC,0.00,VWS V14.01,2013-06-05 14:13:00,
2013-06-05 09:18:00,74.8,68.9,29.88,SSW,198,8.0,12.0,82,0.00,,SKC,0.00,VWS V14.01,2013-06-05 14:18:00,
2013-06-05 09:23:00,75.5,68.9,29.88,SSW,192,5.0,12.0,80,0.00,,SKC,0.00,VWS V14.01,2013-06-05 14:23:00,
2013-06-05 09:28:00,76.1,69.1,29.88,SSW,211,10.0,12.0,79,0.00,,SKC,0.00,VWS V14.01,2013-06-05 14:28:00,
2013-06-05 09:33:00,76.2,68.5,29.88,SSW,203,4.0,10.0,77,0.00,,SKC,0.00,VWS V14.01,2013-06-05 14:33:00,
2013-06-05 09:38:00,76.0,67.9,29.88,SSW,201,2.0,12.0,76,0.00,,SKC,0.00,VWS V14.01,2013-06-05 14:38:00,
2013-06-05 09:43:00,75.7,67.6,29.88,SSW,207,3.0,12.0,76,0.00,,SKC,0.00,VWS V14.01,2013-06-05 14:43:00,
2013-06-05 09:48:00,75.5,67.8,29.88,SSW,201,2.0,12.0,77,0.00,,SKC,0.00,VWS V14.01,2013-06-05 14:48:00,
2013-06-05 09:53:00,75.7,68.4,29.88,SSW,202,7.0,12.0,78,0.00,,SKC,0.00,VWS V14.01,2013-06-05 14:53:00,
2013-06-05 09:58:00,76.0,68.7,29.88,SSW,209,0.0,12.0,78,0.00,,SKC,0.00,VWS V14.01,2013-06-05 14:58:00,
2013-06-05 10:03:00,76.5,68.4,29.88,SSW,207,3.0,8.0,76,0.00,,SKC,0.00,VWS V14.01,2013-06-05 15:03:00,
2013-06-05 10:08:00,76.9,68.8,29.88,SSW,213,7.0,12.0,76,0.00,,SKC,0.00,VWS V14.01,2013-06-05 15:08:00,
2013-06-05 10:13:00,77.2,68.7,29.88,SSW,201,5.0,12.0,75,0.00,,SKC,0.00,VWS V14.01,2013-06-05 15:13:00,
2013-06-05 10:18:00,77.6,68.7,29.88,SSW,196,3.0,12.0,74,0.00,,SKC,0.00,VWS V14.01,2013-06-05 15:18:00,
2013-06-05 10:23:00,78.1,68.3,29.88,South,182,6.0,12.0,72,0.00,,SKC,0.00,VWS V14.01,2013-06-05 15:23:00,
2013-06-05 10:28:00,78.4,68.2,29.88,South,169,1.0,12.0,71,0.00,,SKC,0.00,VWS V14.01,2013-06-05 15:28:00,
2013-06-05 10:33:00,78.8,69.0,29.88,SSE,165,5.0,16.0,72,0.00,,SKC,0.00,VWS V14.01,2013-06-05 15:33:00,
2013-06-05 10:38:00,78.9,68.7,29.87,South,174,3.0,16.0,71,0.00,,SKC,0.00,VWS V14.01,2013-06-05 15:38:00,
2013-06-05 10:43:00,79.3,69.1,29.87,SSE,165,3.0,16.0,71,0.00,,SKC,0.00,VWS V14.01,2013-06-05 15:43:00,
2013-06-05 10:48:00,79.7,69.5,29.87,South,171,0.0,16.0,71,0.00,,SKC,0.00,VWS V14.01,2013-06-05 15:48:00,
2013-06-05 10:53:00,80.2,69.5,29.87,SSE,165,5.0,16.0,70,0.00,,SKC,0.00,VWS V14.01,2013-06-05 15:53:00,
2013-06-05 10:58:00,80.4,69.7,29.87,SSE,163,4.0,16.0,70,0.00,,SKC,0.00,VWS V14.01,2013-06-05 15:58:00,
2013-06-05 11:03:00,80.6,69.5,29.87,SSW,193,1.0,6.0,69,0.00,,SKC,0.00,VWS V14.01,2013-06-05 16:03:00,
2013-06-05 11:08:00,80.8,69.7,29.87,South,179,4.0,8.0,69,0.00,,SKC,0.00,VWS V14.01,2013-06-05 16:08:00,
2013-06-05 11:13:00,80.9,69.8,29.87,South,169,2.0,9.0,69,0.00,,SKC,0.00,VWS V14.01,2013-06-05 16:13:00,
2013-06-05 11:18:00,81.2,70.1,29.87,SSE,167,3.0,9.0,69,0.00,,SKC,0.00,VWS V14.01,2013-06-05 16:18:00,
2013-06-05 11:23:00,81.2,69.6,29.87,SSW,210,5.0,14.0,68,0.00,,SKC,0.00,VWS V14.01,2013-06-05 16:23:00,
2013-06-05 11:28:00,81.2,70.1,29.87,South,171,3.0,14.0,69,0.00,,SKC,0.00,VWS V14.01,2013-06-05 16:28:00,
2013-06-05 11:33:00,81.5,69.9,29.87,South,169,5.0,8.0,68,0.00,,SKC,0.00,VWS V14.01,2013-06-05 16:33:00,
2013-06-05 11:38:00,81.7,69.7,29.87,South,173,4.0,10.0,67,0.00,,SKC,0.00,VWS V14.01,2013-06-05 16:38:00,
2013-06-05 11:43:00,81.8,69.3,29.87,South,183,2.0,10.0,66,0.00,,SKC,0.00,VWS V14.01,2013-06-05 16:43:00,
2013-06-05 11:48:00,82.0,69.5,29.87,South,183,2.0,10.0,66,0.00,,SKC,0.00,VWS V14.01,2013-06-05 16:48:00,
2013-06-05 11:53:00,82.3,69.8,29.87,SSE,156,6.0,11.0,66,0.00,,SKC,0.00,VWS V14.01,2013-06-05 16:53:00,
2013-06-05 11:58:00,82.5,70.0,29.87,SSE,149,0.0,11.0,66,0.00,,SKC,0.00,VWS V14.01,2013-06-05 16:58:00,
2013-06-05 12:04:00,82.9,69.9,29.87,SSE,161,3.0,3.0,65,0.00,,SKC,0.00,VWS V14.01,2013-06-05 17:04:00,
2013-06-05 12:09:00,83.2,70.7,29.87,SSE,167,3.0,7.0,66,0.00,,SKC,0.00,VWS V14.01,2013-06-05 17:09:00,
2013-06-05 12:14:00,83.3,70.3,29.87,SSE,160,5.0,12.0,65,0.00,,SKC,0.00,VWS V14.01,2013-06-05 17:14:00,
2013-06-05 12:19:00,83.3,69.9,29.86,SSE,148,5.0,12.0,64,0.00,,SKC,0.00,VWS V14.01,2013-06-05 17:19:00,
2013-06-05 12:24:00,83.3,70.3,29.87,SSE,162,6.0,12.0,65,0.00,,SKC,0.00,VWS V14.01,2013-06-05 17:24:00,
2013-06-05 12:29:00,83.5,70.5,29.86,SSE,154,5.0,12.0,65,0.00,,SKC,0.00,VWS V14.01,2013-06-05 17:29:00,
2013-06-05 12:34:00,83.7,70.2,29.86,SSE,148,4.0,10.0,64,0.00,,SKC,0.00,VWS V14.01,2013-06-05 17:34:00,
2013-06-05 12:39:00,83.7,70.2,29.86,SE,144,3.0,15.0,64,0.00,,SKC,0.00,VWS V14.01,2013-06-05 17:39:00,
2013-06-05 12:44:00,83.9,70.4,29.86,SSE,153,5.0,15.0,64,0.00,,SKC,0.00,VWS V14.01,2013-06-05 17:44:00,
2013-06-05 12:49:00,84.3,70.8,29.86,South,190,6.0,15.0,64,0.00,,SKC,0.00,VWS V14.01,2013-06-05 17:49:00,
2013-06-05 12:54:00,84.6,70.2,29.86,South,190,2.0,15.0,62,0.00,,SKC,0.00,VWS V14.01,2013-06-05 17:54:00,
2013-06-05 12:59:00,84.8,71.3,29.86,South,176,5.0,15.0,64,0.00,,SKC,0.00,VWS V14.01,2013-06-05 17:59:00,
2013-06-05 13:04:00,85.1,71.6,29.86,SSE,159,0.0,5.0,64,0.00,,SKC,0.00,VWS V14.01,2013-06-05 18:04:00,
2013-06-05 13:09:00,85.4,70.9,29.86,SSE,154,0.0,14.0,62,0.00,,SKC,0.00,VWS V14.01,2013-06-05 18:09:00,
2013-06-05 13:14:00,85.9,71.4,29.86,SSE,165,2.0,14.0,62,0.00,,SKC,0.00,VWS V14.01,2013-06-05 18:14:00,
2013-06-05 13:19:00,86.2,70.7,29.85,SSE,165,1.0,14.0,60,0.00,,SKC,0.00,VWS V14.01,2013-06-05 18:19:00,
2013-06-05 13:24:00,86.2,70.2,29.85,SE,141,0.0,14.0,59,0.00,,SKC,0.00,VWS V14.01,2013-06-05 18:24:00,
2013-06-05 13:29:00,86.6,71.1,29.86,SE,141,4.0,14.0,60,0.00,,SKC,0.00,VWS V14.01,2013-06-05 18:29:00,
2013-06-05 13:34:00,86.8,71.3,29.86,SE,140,0.0,9.0,60,0.00,,SKC,0.00,VWS V14.01,2013-06-05 18:34:00,
2013-06-05 13:39:00,86.9,70.9,29.86,South,186,4.0,13.0,59,0.00,,SKC,0.00,VWS V14.01,2013-06-05 18:39:00,
2013-06-05 13:44:00,87.0,69.9,29.86,SSE,162,0.0,13.0,57,0.00,,SKC,0.00,VWS V14.01,2013-06-05 18:44:00,
2013-06-05 13:49:00,87.2,70.6,29.86,South,178,2.0,13.0,58,0.00,,SKC,0.00,VWS V14.01,2013-06-05 18:49:00,
2013-06-05 13:54:00,87.4,70.8,29.85,South,189,6.0,13.0,58,0.00,,SKC,0.00,VWS V14.01,2013-06-05 18:54:00,
2013-06-05 13:59:00,87.4,70.8,29.85,SSW,195,2.0,13.0,58,0.00,,SKC,0.00,VWS V14.01,2013-06-05 18:59:00,
2013-06-05 14:04:00,87.7,71.6,29.85,SSW,194,0.0,5.0,59,0.00,,SKC,0.00,VWS V14.01,2013-06-05 19:04:00,
2013-06-05 14:09:00,88.0,71.9,29.84,SSW,204,4.0,10.0,59,0.00,,SKC,0.00,VWS V14.01,2013-06-05 19:09:00,
2013-06-05 14:14:00,87.9,70.8,29.84,WSW,244,11.0,11.0,57,0.00,,SKC,0.00,VWS V14.01,2013-06-05 19:14:00,
2013-06-05 14:19:00,87.9,71.3,29.84,SSW,192,7.0,11.0,58,0.00,,SKC,0.00,VWS V14.01,2013-06-05 19:19:00,
2013-06-05 14:24:00,88.0,70.3,29.84,SSE,159,0.0,11.0,56,0.00,,SKC,0.00,VWS V14.01,2013-06-05 19:24:00,
2013-06-05 14:29:00,88.4,70.7,29.85,SSE,156,2.0,11.0,56,0.00,,SKC,0.00,VWS V14.01,2013-06-05 19:29:00,
2013-06-05 14:34:00,88.3,70.1,29.85,South,169,2.0,4.0,55,0.00,,SKC,0.00,VWS V14.01,2013-06-05 19:34:00,
2013-06-05 14:39:00,88.4,70.7,29.85,SSE,165,7.0,7.0,56,0.00,,SKC,0.00,VWS V14.01,2013-06-05 19:39:00,
2013-06-05 14:44:00,88.8,70.0,29.85,SSE,161,3.0,7.0,54,0.00,,SKC,0.00,VWS V14.01,2013-06-05 19:44:00,
2013-06-05 14:49:00,88.9,69.0,29.85,SSE,156,0.0,9.0,52,0.00,,SKC,0.00,VWS V14.01,2013-06-05 19:49:00,
2013-06-05 14:54:00,89.1,69.8,29.85,SSE,156,0.0,9.0,53,0.00,,SKC,0.00,VWS V14.01,2013-06-05 19:54:00,
2013-06-05 14:59:00,89.3,70.5,29.85,SSE,155,2.0,9.0,54,0.00,,SKC,0.00,VWS V14.01,2013-06-05 19:59:00,
2013-06-05 15:04:00,89.4,71.1,29.85,SSE,153,3.0,4.0,55,0.00,,SKC,0.00,VWS V14.01,2013-06-05 20:04:00,
2013-06-05 15:08:00,89.8,70.4,29.85,SSE,153,6.0,7.0,53,0.00,,SKC,0.00,VWS V14.01,2013-06-05 20:08:00,
2013-06-05 15:13:00,90.0,69.5,29.85,SSE,147,0.0,9.0,51,0.00,,SKC,0.00,VWS V14.01,2013-06-05 20:13:00,
2013-06-05 15:18:00,90.0,69.5,29.84,SSE,147,0.0,9.0,51,0.00,,SKC,0.00,VWS V14.01,2013-06-05 20:18:00,
2013-06-05 15:23:00,90.2,70.2,29.85,SSE,147,7.0,9.0,52,0.00,,SKC,0.00,VWS V14.01,2013-06-05 20:23:00,
2013-06-05 15:28:00,90.2,69.6,29.84,SSE,147,0.0,9.0,51,0.00,,SKC,0.00,VWS V14.01,2013-06-05 20:28:00,
2013-06-05 15:33:00,90.2,70.2,29.84,SE,128,4.0,7.0,52,0.00,,SKC,0.00,VWS V14.01,2013-06-05 20:33:00,
2013-06-05 15:38:00,90.3,69.2,29.84,SE,128,6.0,7.0,50,0.00,,SKC,0.00,VWS V14.01,2013-06-05 20:38:00,
2013-06-05 15:43:00,90.6,68.8,29.84,SE,130,3.0,7.0,49,0.00,,SKC,0.00,VWS V14.01,2013-06-05 20:43:00,
2013-06-05 15:48:00,90.6,68.2,29.84,SE,134,0.0,7.0,48,0.00,,SKC,0.00,VWS V14.01,2013-06-05 20:48:00,
2013-06-05 15:53:00,90.8,68.4,29.84,SE,141,9.0,9.0,48,0.00,,SKC,0.00,VWS V14.01,2013-06-05 20:53:00,
2013-06-05 15:58:00,90.6,69.4,29.84,SE,128,5.0,9.0,50,0.00,,SKC,0.00,VWS V14.01,2013-06-05 20:58:00,
2013-06-05 16:03:00,90.5,69.9,29.83,SE,125,3.0,5.0,51,0.00,,SKC,0.00,VWS V14.01,2013-06-05 21:03:00,
2013-06-05 16:08:00,90.7,70.1,29.83,ESE,123,1.0,6.0,51,0.00,,SKC,0.00,VWS V14.01,2013-06-05 21:08:00,
2013-06-05 16:13:00,91.0,70.9,29.83,ESE,123,1.0,6.0,52,0.00,,SKC,0.00,VWS V14.01,2013-06-05 21:13:00,
2013-06-05 16:18:00,91.3,68.9,29.83,SE,126,0.0,10.0,48,0.00,,SKC,0.00,VWS V14.01,2013-06-05 21:18:00,
2013-06-05 16:23:00,91.3,68.9,29.83,ESE,122,3.0,10.0,48,0.00,,SKC,0.00,VWS V14.01,2013-06-05 21:23:00,
2013-06-05 16:28:00,91.3,68.9,29.83,SE,127,9.0,10.0,48,0.00,,SKC,0.00,VWS V14.01,2013-06-05 21:28:00,
2013-06-05 16:33:00,91.3,69.5,29.82,SE,134,2.0,7.0,49,0.00,,SKC,0.00,VWS V14.01,2013-06-05 21:33:00,
2013-06-05 16:38:00,91.3,69.5,29.82,SE,140,5.0,10.0,49,0.00,,SKC,0.00,VWS V14.01,2013-06-05 21:38:00,
2013-06-05 16:43:00,91.2,70.0,29.82,SSE,148,4.0,11.0,50,0.00,,SKC,0.00,VWS V14.01,2013-06-05 21:43:00,
2013-06-05 16:48:00,90.9,69.7,29.81,SE,143,9.0,12.0,50,0.00,,SKC,0.00,VWS V14.01,2013-06-05 21:48:00,
2013-06-05 16:53:00,90.7,69.5,29.81,SSE,147,12.0,12.0,50,0.00,,SKC,0.00,VWS V14.01,2013-06-05 21:53:00,
2013-06-05 16:58:00,90.5,67.5,29.81,SSE,147,4.0,12.0,47,0.00,,SKC,0.00,VWS V14.01,2013-06-05 21:58:00,
2013-06-05 17:03:00,90.3,66.7,29.81,SE,146,5.0,7.0,46,0.00,,SKC,0.00,VWS V14.01,2013-06-05 22:03:00,
2013-06-05 17:08:00,90.3,68.6,29.81,SE,146,5.0,7.0,49,0.00,,SKC,0.00,VWS V14.01,2013-06-05 22:08:00,
2013-06-05 17:13:00,90.4,68.1,29.80,SSE,148,4.0,10.0,48,0.00,,SKC,0.00,VWS V14.01,2013-06-05 22:13:00,
2013-06-05 17:18:00,90.5,68.8,29.80,SSE,147,2.0,10.0,49,0.00,,SKC,0.00,VWS V14.01,2013-06-05 22:18:00,
2013-06-05 17:23:00,90.6,68.2,29.80,SE,145,3.0,12.0,48,0.00,,SKC,0.00,VWS V14.01,2013-06-05 22:23:00,
2013-06-05 17:28:00,90.6,68.8,29.80,SSE,159,1.0,12.0,49,0.00,,SKC,0.00,VWS V14.01,2013-06-05 22:28:00,
2013-06-05 17:33:00,90.5,68.8,29.80,SSE,151,5.0,6.0,49,0.00,,SKC,0.00,VWS V14.01,2013-06-05 22:33:00,
2013-06-05 17:38:00,90.5,68.8,29.80,SSE,149,2.0,12.0,49,0.00,,SKC,0.00,VWS V14.01,2013-06-05 22:38:00,
2013-06-05 17:43:00,90.5,68.8,29.79,SSE,150,4.0,12.0,49,0.00,,SKC,0.00,VWS V14.01,2013-06-05 22:43:00,
2013-06-05 17:48:00,90.4,69.2,29.79,SSE,147,3.0,12.0,50,0.00,,SKC,0.00,VWS V14.01,2013-06-05 22:48:00,
2013-06-05 17:53:00,90.3,69.2,29.79,SSE,149,0.0,12.0,50,0.00,,SKC,0.00,VWS V14.01,2013-06-05 22:53:00,
2013-06-05 17:58:00,90.4,69.2,29.78,SE,146,3.0,12.0,50,0.00,,SKC,0.00,VWS V14.01,2013-06-05 22:58:00,
2013-06-05 18:03:00,90.3,69.2,29.78,SE,144,4.0,7.0,50,0.00,,SKC,0.00,VWS V14.01,2013-06-05 23:03:00,
2013-06-05 18:08:00,90.3,69.2,29.78,SE,141,1.0,10.0,50,0.00,,SKC,0.00,VWS V14.01,2013-06-05 23:08:00,
2013-06-05 18:13:00,90.3,69.2,29.77,SE,141,0.0,10.0,50,0.00,,SKC,0.00,VWS V14.01,2013-06-05 23:13:00,
2013-06-05 18:18:00,90.3,68.0,29.77,SE,143,5.0,14.0,48,0.00,,SKC,0.00,VWS V14.01,2013-06-05 23:18:00,
2013-06-05 18:23:00,90.2,67.9,29.77,SE,144,2.0,14.0,48,0.00,,SKC,0.00,VWS V14.01,2013-06-05 23:23:00,
2013-06-05 18:28:00,90.0,67.1,29.77,SSE,155,5.0,14.0,47,0.00,,SKC,0.00,VWS V14.01,2013-06-05 23:28:00,
2013-06-05 18:33:00,89.9,67.0,29.76,SE,144,4.0,13.0,47,0.00,,SKC,0.00,VWS V14.01,2013-06-05 23:33:00,
2013-06-05 18:38:00,89.8,66.9,29.76,SE,144,5.0,13.0,47,0.00,,SKC,0.00,VWS V14.01,2013-06-05 23:38:00,
2013-06-05 18:43:00,89.8,66.9,29.76,SE,139,3.0,13.0,47,0.00,,SKC,0.00,VWS V14.01,2013-06-05 23:43:00,
2013-06-05 18:48:00,89.7,66.8,29.75,SSE,152,7.0,13.0,47,0.00,,SKC,0.00,VWS V14.01,2013-06-05 23:48:00,
2013-06-05 18:53:00,89.5,66.6,29.75,SE,140,8.0,13.0,47,0.00,,SKC,0.00,VWS V14.01,2013-06-05 23:53:00,
2013-06-05 18:58:00,89.3,67.1,29.75,SSE,148,10.0,13.0,48,0.00,,SKC,0.00,VWS V14.01,2013-06-05 23:58:00,
2013-06-05 19:03:00,89.2,67.0,29.75,SE,144,5.0,6.0,48,0.00,,SKC,0.00,VWS V14.01,2013-06-06 00:03:00,
2013-06-05 19:08:00,89.1,67.5,29.75,SSE,147,2.0,13.0,49,0.00,,SKC,0.00,VWS V14.01,2013-06-06 00:08:00,
2013-06-05 19:13:00,88.9,67.3,29.75,SSE,150,5.0,14.0,49,0.00,,SKC,0.00,VWS V14.01,2013-06-06 00:13:00,
2013-06-05 19:18:00,88.7,67.7,29.75,SSE,149,6.0,14.0,50,0.00,,SKC,0.00,VWS V14.01,2013-06-06 00:18:00,
2013-06-05 19:23:00,88.5,67.5,29.74,SE,145,3.0,14.0,50,0.00,,SKC,0.00,VWS V14.01,2013-06-06 00:23:00,
2013-06-05 19:28:00,88.4,68.0,29.74,SSE,168,4.0,14.0,51,0.00,,SKC,0.00,VWS V14.01,2013-06-06 00:28:00,
2013-06-05 19:33:00,88.2,68.4,29.74,SSE,159,1.0,10.0,52,0.00,,SKC,0.00,VWS V14.01,2013-06-06 00:33:00,
2013-06-05 19:38:00,88.1,68.3,29.74,South,180,3.0,12.0,52,0.00,,SKC,0.00,VWS V14.01,2013-06-06 00:38:00,
2013-06-05 19:43:00,87.7,68.5,29.74,SSE,164,5.0,12.0,53,0.00,,SKC,0.00,VWS V14.01,2013-06-06 00:43:00,
2013-06-05 19:48:00,87.4,68.2,29.74,SSE,152,6.0,12.0,53,0.00,,SKC,0.00,VWS V14.01,2013-06-06 00:48:00,
2013-06-05 19:53:00,87.2,68.5,29.74,SSE,149,4.0,12.0,54,0.00,,SKC,0.00,VWS V14.01,2013-06-06 00:53:00,
2013-06-05 19:58:00,87.1,68.4,29.75,SE,146,3.0,17.0,54,0.00,,SKC,0.00,VWS V14.01,2013-06-06 00:58:00,
2013-06-05 20:03:00,86.9,68.8,29.75,SE,143,1.0,10.0,55,0.00,,SKC,0.00,VWS V14.01,2013-06-06 01:03:00,
2013-06-05 20:08:00,86.8,68.7,29.75,SE,143,7.0,12.0,55,0.00,,SKC,0.00,VWS V14.01,2013-06-06 01:08:00,
2013-06-05 20:13:00,86.8,68.7,29.76,SSE,152,3.0,12.0,55,0.00,,SKC,0.00,VWS V14.01,2013-06-06 01:13:00,
2013-06-05 20:18:00,86.7,68.6,29.76,SSE,152,3.0,12.0,55,0.00,,SKC,0.00,VWS V14.01,2013-06-06 01:18:00,
2013-06-05 20:23:00,86.5,68.4,29.76,SSE,152,2.0,12.0,55,0.00,,SKC,0.00,VWS V14.01,2013-06-06 01:23:00,
2013-06-05 20:28:00,86.4,68.9,29.76,SSE,151,5.0,12.0,56,0.00,,SKC,0.00,VWS V14.01,2013-06-06 01:28:00,
2013-06-05 20:33:00,86.3,68.8,29.76,SSE,151,5.0,6.0,56,0.00,,SKC,0.00,VWS V14.01,2013-06-06 01:33:00,
2013-06-05 20:38:00,86.2,68.7,29.77,SSE,151,0.0,9.0,56,0.00,,SKC,0.00,VWS V14.01,2013-06-06 01:38:00,
2013-06-05 20:43:00,86.1,68.6,29.77,SSE,151,0.0,9.0,56,0.00,,SKC,0.00,VWS V14.01,2013-06-06 01:43:00,
2013-06-05 20:48:00,85.9,68.4,29.77,SSE,151,5.0,9.0,56,0.00,,SKC,0.00,VWS V14.01,2013-06-06 01:48:00,
2013-06-05 20:53:00,85.7,68.7,29.77,SSE,151,1.0,9.0,57,0.00,,SKC,0.00,VWS V14.01,2013-06-06 01:53:00,
2013-06-05 20:58:00,85.6,68.6,29.78,SSE,151,0.0,9.0,57,0.00,,SKC,0.00,VWS V14.01,2013-06-06 01:58:00,
2013-06-05 21:03:00,85.4,68.4,29.78,SSE,151,0.0,1.0,57,0.00,,SKC,0.00,VWS V14.01,2013-06-06 02:03:00,
2013-06-05 21:08:00,85.3,68.9,29.78,SSE,151,0.0,6.0,58,0.00,,SKC,0.00,VWS V14.01,2013-06-06 02:08:00,
2013-06-05 21:13:00,85.1,69.2,29.78,SSE,150,4.0,10.0,59,0.00,,SKC,0.00,VWS V14.01,2013-06-06 02:13:00,
2013-06-05 21:18:00,84.9,69.5,29.78,SE,145,6.0,14.0,60,0.00,,SKC,0.00,VWS V14.01,2013-06-06 02:18:00,
2013-06-05 21:23:00,84.8,69.9,29.78,SE,142,2.0,14.0,61,0.00,,SKC,0.00,VWS V14.01,2013-06-06 02:23:00,
2013-06-05 21:28:00,84.7,70.2,29.78,SSE,149,1.0,14.0,62,0.00,,SKC,0.00,VWS V14.01,2013-06-06 02:28:00,
2013-06-05 21:33:00,84.5,70.5,29.79,SE,145,5.0,7.0,63,0.00,,SKC,0.00,VWS V14.01,2013-06-06 02:33:00,
2013-06-05 21:38:00,84.3,70.3,29.79,SE,145,1.0,7.0,63,0.00,,SKC,0.00,VWS V14.01,2013-06-06 02:38:00,
2013-06-05 21:43:00,84.1,70.6,29.79,SE,144,9.0,13.0,64,0.00,,SKC,0.00,VWS V14.01,2013-06-06 02:43:00,
2013-06-05 21:48:00,83.9,70.9,29.79,SSE,148,4.0,13.0,65,0.00,,SKC,0.00,VWS V14.01,2013-06-06 02:48:00,
2013-06-05 21:53:00,83.7,70.7,29.78,SE,146,6.0,13.0,65,0.00,,SKC,0.00,VWS V14.01,2013-06-06 02:53:00,
2013-06-05 21:58:00,83.5,70.9,29.79,SE,146,5.0,14.0,66,0.00,,SKC,0.00,VWS V14.01,2013-06-06 02:58:00,
2013-06-05 22:03:00,83.2,70.7,29.79,SE,143,5.0,15.0,66,0.00,,SKC,0.00,VWS V14.01,2013-06-06 03:03:00,
2013-06-05 22:08:00,83.0,70.9,29.79,SE,141,11.0,15.0,67,0.00,,SKC,0.00,VWS V14.01,2013-06-06 03:08:00,
2013-06-05 22:13:00,82.8,70.7,29.79,SE,143,4.0,15.0,67,0.00,,SKC,0.00,VWS V14.01,2013-06-06 03:13:00,
2013-06-05 22:18:00,82.6,71.0,29.79,SE,146,2.0,15.0,68,0.00,,SKC,0.00,VWS V14.01,2013-06-06 03:18:00,
2013-06-05 22:23:00,82.4,70.8,29.79,SSE,148,2.0,15.0,68,0.00,,SKC,0.00,VWS V14.01,2013-06-06 03:23:00,
2013-06-05 22:28:00,82.2,71.0,29.80,SE,144,10.0,15.0,69,0.00,,SKC,0.00,VWS V14.01,2013-06-06 03:28:00,
2013-06-05 22:33:00,82.0,70.8,29.80,SE,145,9.0,11.0,69,0.00,,SKC,0.00,VWS V14.01,2013-06-06 03:33:00,
2013-06-05 22:38:00,81.9,71.2,29.80,SE,145,10.0,12.0,70,0.00,,SKC,0.00,VWS V14.01,2013-06-06 03:38:00,
2013-06-05 22:43:00,81.7,71.0,29.80,SE,137,5.0,14.0,70,0.00,,SKC,0.00,VWS V14.01,2013-06-06 03:43:00,
2013-06-05 22:48:00,81.6,70.9,29.80,SE,138,7.0,14.0,70,0.00,,SKC,0.00,VWS V14.01,2013-06-06 03:48:00,
2013-06-05 22:53:00,81.4,71.1,29.81,SSE,148,4.0,14.0,71,0.00,,SKC,0.00,VWS V14.01,2013-06-06 03:53:00,
2013-06-05 22:58:00,81.2,70.9,29.81,SSE,148,4.0,14.0,71,0.00,,SKC,0.00,VWS V14.01,2013-06-06 03:58:00,
2013-06-05 23:01:00,81.1,70.8,29.81,SSE,147,6.0,14.0,71,0.00,,SKC,0.00,VWS V14.01,2013-06-06 04:01:00,
2013-06-05 23:06:00,80.9,71.0,29.81,SSE,147,3.0,10.0,72,0.00,,SKC,0.00,VWS V14.01,2013-06-06 04:06:00,
2013-06-05 23:11:00,80.7,70.8,29.81,SSE,147,6.0,10.0,72,0.00,,SKC,0.00,VWS V14.01,2013-06-06 04:11:00,
2013-06-05 23:16:00,80.5,71.1,29.82,SSE,147,2.0,10.0,73,0.00,,SKC,0.00,VWS V14.01,2013-06-06 04:16:00,
2013-06-05 23:21:00,80.3,70.9,29.82,SE,145,2.0,11.0,73,0.00,,SKC,0.00,VWS V14.01,2013-06-06 04:21:00,
2013-06-05 23:26:00,80.2,70.8,29.82,SE,146,3.0,11.0,73,0.00,,SKC,0.00,VWS V14.01,2013-06-06 04:26:00,
2013-06-05 23:31:00,80.0,71.0,29.82,SE,146,2.0,11.0,74,0.00,,SKC,0.00,VWS V14.01,2013-06-06 04:31:00,
2013-06-05 23:36:00,79.8,70.8,29.83,SSE,147,2.0,9.0,74,0.00,,SKC,0.00,VWS V14.01,2013-06-06 04:36:00,
2013-06-05 23:41:00,79.7,71.1,29.83,SSE,147,5.0,9.0,75,0.00,,SKC,0.00,VWS V14.01,2013-06-06 04:41:00,
2013-06-05 23:46:00,79.6,71.0,29.83,SSE,147,3.0,9.0,75,0.00,,SKC,0.00,VWS V14.01,2013-06-06 04:46:00,
2013-06-05 23:51:00,79.4,70.8,29.83,SSE,147,2.0,9.0,75,0.00,,SKC,0.00,VWS V14.01,2013-06-06 04:51:00,
2013-06-05 23:56:00,79.3,71.1,29.83,SSE,147,0.0,9.0,76,0.00,,SKC,0.00,VWS V14.01,2013-06-06 04:56:00,